Regional Weather Roundup
Issued by NWS

Home | Current Version | Previous Version | Text Only | Print | Product List | Glossary On
Versions: 1 2 3 4 5 6 7 8 9 10 11 12 13 14 15 16 17 18 19 20 21 22 23 24 25 26 27 28 29 30 31 32 33 34 35 36 37 38 39 40 41 42 43 44 45 46 47 48 49 50
000
ASUS43 KDTX 222101
RWRMI
MICHIGAN HOURLY REGIONAL WEATHER ROUNDUP
NATIONAL WEATHER SERVICE DETROIT/PONTIAC MI
500 PM EDT FRI AUG 22 2014

NOTE: "FAIR" INDICATES FEW OR NO CLOUDS BELOW 12,000 FEET WITH NO
SIGNIFICANT WEATHER AND/OR OBSTRUCTION TO VISIBILITY.

MIZ047>049-052>055-059>063-066>070-074>076-081>083-222200-
SOUTHEAST LOWER MICHIGAN

CITY           SKY/WX    TMP DP  RH WIND       PRES   REMARKS
ADRIAN         CLOUDY    82  71  69 N5        29.97S
ALMA           CLOUDY    78  68  73 E7        29.99R
ANN ARBOR      CLOUDY    82  69  64 W8        29.97R
BAD AXE        SUNNY     76  65  70 NE8       30.00S
CARO           CLOUDY    76  67  73 N3        29.99R
DETROIT CITY   PTSUNNY   82  67  60 VRB6      29.96S
DETROIT        PTSUNNY   83  68  60 E6        29.96S
FLINT          PTSUNNY   82  67  60 NE9       29.98S
GROSSE ILE     CLOUDY    81  72  74 S5        29.95R
HILLSDALE      PTSUNNY   81  74  79 N5        29.98F
HOWELL         PTSUNNY   78  69  72 NE5       29.98R

CITY           SKY/WX    TMP DP  RH WIND       PRES   REMARKS
JACKSON        CLOUDY    78  71  79 CALM      29.98S
LAMBERTVILLE   CLOUDY    81  72  74 E3        29.97R
LANSING        CLOUDY    82  69  64 CALM      29.98R
LAPEER         CLOUDY    76  66  70 E3        30.00R
MASON          CLOUDY    79  70  74 CALM      29.98R
MONROE         PTSUNNY   81  72  74 SE3       29.94S
MT. CLEMENS    PTSUNNY   79  67  66 NE10      29.95S
PONTIAC        MOSUNNY   82  66  58 NE6       29.97S
PORT HOPE        N/A     65  63  93 NE9       30.01R
PORT HURON     CLOUDY    72  63  73 NE7       29.99S
TRI CITIES     CLOUDY    78  64  61 NE10      30.00R
TROY           CLOUDY    83  67  59 E7        29.98S
SAGINAW HB     CLOUDY    77  68  73 N7        29.99S
$$
MIZ043>046-050>051-056>058-064>065-071>073-077>080-222200-
SOUTHWEST LOWER MICHIGAN

CITY           SKY/WX    TMP DP  RH WIND       PRES   REMARKS
BATTLE CREEK   CLOUDY    80  71  74 N5        29.98F
BENTON HARBOR  MOSUNNY   82  72  71 N3        29.93F
BIG RAPIDS     CLOUDY    76  71  83 SE8       29.98S
COLDWATER      PTSUNNY   82  73  73 NE6       29.97S
FREMONT        FAIR      80  70  71 MISG      29.96S
HOLLAND        CLOUDY    81  73  76 E5        29.96S
GRAND RAPIDS   PTSUNNY   80  75  84 S6        29.97S
IONIA          CLOUDY    78  70  76 CALM      29.97S
KALAMAZOO      MOSUNNY   82  72  71 NE5       29.96S
LUDINGTON      CLOUDY    77  72  84 NE3       29.97R
MARSHALL       CLOUDY    76  71  84 W5        29.97S
MOUNT PLEASANT CLOUDY    79  67  67 E6        29.98S
MUSKEGON       PTSUNNY   82  72  71 SW7       29.95S
SOUTH HAVEN    MOSUNNY   82  74  77 W3        29.94F
$$
MIZ016>042-222200-
NORTHERN LOWER MICHIGAN

CITY           SKY/WX    TMP DP  RH WIND       PRES   REMARKS
ALPENA         SUNNY     75  65  70 E8        30.01S
BEAVER ISLAND  CLOUDY    75  67  75 E8        30.00F
BELLAIRE       CLOUDY    79  67  67 CALM      29.97S
CADILLAC       CLOUDY    76  68  77 SE3       30.00S
CHARLEVOIX     CLOUDY    75  67  74 N8        30.02S
FRANKFORT      PTSUNNY   82  69  64 CALM      29.96S
GAYLORD        CLOUDY    76  63  64 E5        30.01F
GRAYLING       CLOUDY    79  66  63 CALM      30.01S
HARBOR SPRINGS CLOUDY    78  66  66 E6        29.99F
HOUGHTON LAKE  CLOUDY    79  64  60 SW6       30.00F
MANISTEE       CLOUDY    79  70  73 E5        29.98S
OSCODA         SUNNY     72  64  75 E6        30.00S
PELLSTON       PTSUNNY   77  65  66 NE7       30.01S
ROGERS CITY    CLOUDY    70  66  85 E7        30.03S
TRAVERSE CITY  CLOUDY    78  67  68 VRB6      29.96S
$$
MIZ007>008-015-222200-
EASTERN UPPER MICHIGAN

CITY           SKY/WX    TMP DP  RH WIND       PRES   REMARKS
KINROSS        CLOUDY    77  63  61 S3        30.02S
MACKINAC ISLAN CLOUDY    68  64  87 E6        30.02S
NEWBERRY       CLOUDY    71  64  78 S8        30.01S
S. S. MARIE    MOSUNNY   78  64  61 SE5       30.00F
$$
MIZ004>006-011>014-085-222200-
CENTRAL UPPER MICHIGAN

CITY           SKY/WX    TMP DP  RH WIND       PRES   REMARKS
MANISTIQUE     PTSUNNY   74  66  76 SE7       30.00S
ESCANABA       PTSUNNY   72  66  83 SE7       29.98S
MENOMINEE      CLOUDY    72  66  83 E5        29.97R
SAWYER-GWINN   CLOUDY    73  66  78 SE5       30.00F
$$
MIZ001>003-009>011-084-222200-
WESTERN UPPER MICHIGAN

CITY           SKY/WX    TMP DP  RH WIND       PRES   REMARKS
IRON MOUNTAIN  CLOUDY    74  68  81 S5        29.98R
HOUGHTON       CLOUDY    68  60  75 E9        30.00R
COPPER HARBOR    N/A     61  55  81 E3        30.00S
IRONWOOD       CLOUDY    68  66  94 NW8       29.97R
$$

ABBREVIATIONS USED IN REMARKS
   TC - TEMPERATURE IN CELSIUS
  WCI - WIND CHILL INDEX
   HX - HEAT INDEX
  VSB - VISIBILITY




USA.gov is the U.S. government's official web portal to all federal, state and local government web resources and services.